| time (UTC) | temp F | wind direction | speed MPH | gust MPH | rain 1hr in | rain 24hr in | rain mn in | humidity % | barometer mb |
| 20260509173352 | 81 | 102 | 1.0 | 1.0 | 0.00 | 0.33 | 0.33 | 53 | 1013.6 |
| 20260509172848 | 81 | 97 | 1.0 | 1.0 | 0.00 | 0.33 | 0.33 | 54 | 1013.6 |
| 20260509172345 | 81 | 219 | 3.0 | 3.0 | 0.00 | 0.33 | 0.33 | 55 | 1013.5 |
| 20260509171841 | 81 | 245 | 3.0 | 5.0 | 0.00 | 0.33 | 0.33 | 58 | 1013.4 |
| 20260509171337 | 81 | 355 | 2.0 | 2.0 | 0.00 | 0.33 | 0.33 | 58 | 1013.5 |
| 20260509170833 | 81 | 320 | 4.0 | 6.0 | 0.00 | 0.33 | 0.33 | 56 | 1013.5 |
| 20260509170329 | 80 | 54 | 1.0 | 1.0 | 0.00 | 0.33 | 0.33 | 58 | 1013.7 |
| 20260509165824 | 79 | 78 | 3.0 | 3.0 | 0.00 | 0.33 | 0.33 | 59 | 1013.6 |
| 20260509165318 | 79 | 32 | 2.0 | 3.0 | 0.00 | 0.33 | 0.33 | 57 | 1013.9 |
| 20260509164815 | 78 | 40 | 0.0 | 1.0 | 0.00 | 0.33 | 0.33 | 59 | 1013.8 |
| 20260509164311 | 78 | 329 | 2.0 | 2.0 | 0.00 | 0.33 | 0.33 | 58 | 1013.7 |
| 20260509163808 | 78 | 309 | 4.0 | 5.0 | 0.00 | 0.33 | 0.33 | 59 | 1013.9 |
| 20260509163304 | 78 | 348 | 5.0 | 6.0 | 0.00 | 0.33 | 0.33 | 59 | 1013.8 |
| 20260509162803 | 78 | 335 | 5.0 | 6.0 | 0.00 | 0.33 | 0.33 | 58 | 1013.9 |
| 20260509162256 | 79 | 15 | 7.0 | 9.0 | 0.00 | 0.33 | 0.33 | 60 | 1014.0 |
| 20260509161753 | 77 | 27 | 3.0 | 3.0 | 0.00 | 0.33 | 0.33 | 62 | 1013.9 |
| 20260509161249 | 77 | 300 | 6.0 | 7.0 | 0.00 | 0.33 | 0.33 | 63 | 1014.1 |
| 20260509160744 | 77 | 345 | 5.0 | 6.0 | 0.00 | 0.33 | 0.33 | 63 | 1014.1 |
| 20260509160241 | 77 | 305 | 2.0 | 2.0 | 0.00 | 0.33 | 0.33 | 64 | 1013.8 |
| 20260509155737 | 77 | 357 | 5.0 | 7.0 | 0.00 | 0.33 | 0.33 | 64 | 1013.8 |
| 20260509155234 | 77 | 279 | 4.0 | 5.0 | 0.00 | 0.33 | 0.33 | 64 | 1013.9 |
| 20260509154730 | 77 | 328 | 7.0 | 8.0 | 0.00 | 0.33 | 0.33 | 64 | 1013.8 |
| 20260509154226 | 75 | 296 | 3.0 | 5.0 | 0.00 | 0.33 | 0.33 | 65 | 1013.7 |
| 20260509153724 | 75 | 329 | 5.0 | 6.0 | 0.00 | 0.33 | 0.33 | 65 | 1013.7 |
| 20260509153219 | 75 | 23 | 2.0 | 2.0 | 0.00 | 0.33 | 0.33 | 65 | 1013.8 |
| 20260509152715 | 75 | 300 | 5.0 | 6.0 | 0.00 | 0.33 | 0.33 | 66 | 1013.9 |
| 20260509152212 | 75 | 304 | 5.0 | 6.0 | 0.00 | 0.33 | 0.33 | 65 | 1013.7 |
| 20260509151709 | 74 | 320 | 3.0 | 6.0 | 0.00 | 0.33 | 0.33 | 66 | 1013.9 |
| 20260509151206 | 74 | 26 | 3.0 | 6.0 | 0.00 | 0.33 | 0.33 | 67 | 1013.7 |
| 20260509150704 | 74 | 309 | 11.0 | 13.0 | 0.00 | 0.33 | 0.33 | 67 | 1013.7 |
| 20260509150202 | 73 | 323 | 3.0 | 5.0 | 0.00 | 0.33 | 0.33 | 70 | 1013.6 |
| 20260509145658 | 72 | 356 | 6.0 | 7.0 | 0.00 | 0.33 | 0.33 | 70 | 1013.6 |
| 20260509145153 | 72 | 347 | 8.0 | 9.0 | 0.00 | 0.33 | 0.33 | 70 | 1013.4 |
| 20260509144650 | 72 | 332 | 9.0 | 13.0 | 0.00 | 0.33 | 0.33 | 70 | 1013.5 |
| 20260509144148 | 72 | 327 | 12.0 | 16.0 | 0.00 | 0.33 | 0.33 | 71 | 1013.3 |
| 20260509143644 | 72 | 294 | 9.0 | 10.0 | 0.00 | 0.33 | 0.33 | 71 | 1013.1 |
| 20260509143142 | 73 | 303 | 6.0 | 7.0 | 0.00 | 0.33 | 0.33 | 72 | 1013.1 |
| 20260509142637 | 72 | 288 | 8.0 | 13.0 | 0.00 | 0.33 | 0.33 | 71 | 1013.2 |
| 20260509142134 | 72 | 303 | 8.0 | 11.0 | 0.00 | 0.33 | 0.33 | 70 | 1013.1 |
| 20260509141630 | 72 | 316 | 6.0 | 9.0 | 0.00 | 0.33 | 0.33 | 72 | 1013.2 |
| 20260509141126 | 72 | 291 | 10.0 | 11.0 | 0.00 | 0.33 | 0.33 | 69 | 1013.2 |
| 20260509140624 | 72 | 289 | 9.0 | 11.0 | 0.00 | 0.33 | 0.33 | 70 | 1013.2 |
| 20260509140122 | 72 | 311 | 8.0 | 10.0 | 0.00 | 0.33 | 0.33 | 69 | 1013.0 |
| 20260509135618 | 72 | 301 | 5.0 | 6.0 | 0.00 | 0.33 | 0.33 | 68 | 1013.2 |
| 20260509135117 | 73 | 330 | 4.0 | 5.0 | 0.00 | 0.33 | 0.33 | 70 | 1013.1 |
| 20260509134613 | 74 | 25 | 2.0 | 2.0 | 0.00 | 0.33 | 0.33 | 69 | 1013.0 |
| 20260509134110 | 75 | 10 | 1.0 | 1.0 | 0.00 | 0.33 | 0.33 | 71 | 1012.9 |
| 20260509133607 | 75 | 74 | 0.0 | 0.0 | 0.00 | 0.33 | 0.33 | 73 | 1012.9 |
| 20260509133105 | 74 | 82 | 1.0 | 1.0 | 0.00 | 0.33 | 0.33 | 73 | 1013.1 |
| 20260509132603 | 76 | 34 | 2.0 | 2.0 | 0.00 | 0.33 | 0.33 | 71 | 1013.2 |
| 20260509132101 | 74 | 111 | 0.0 | 0.0 | 0.00 | 0.33 | 0.33 | 72 | 1012.8 |
| 20260509131557 | 72 | 111 | 0.0 | 0.0 | 0.00 | 0.33 | 0.33 | 75 | 1012.8 |
| 20260509131054 | 71 | 175 | 2.0 | 2.0 | 0.00 | 0.33 | 0.33 | 75 | 1012.9 |
| 20260509130549 | 71 | 169 | 4.0 | 5.0 | 0.00 | 0.33 | 0.33 | 76 | 1012.8 |
| 20260509130046 | 70 | 233 | 3.0 | 3.0 | 0.00 | 0.33 | 0.33 | 76 | 1013.0 |
| 20260509125543 | 69 | 267 | 2.0 | 2.0 | 0.00 | 0.33 | 0.33 | 78 | 1012.7 |
| 20260509125039 | 68 | 262 | 3.0 | 5.0 | 0.00 | 0.33 | 0.33 | 78 | 1012.3 |
| 20260509124536 | 68 | 323 | 3.0 | 3.0 | 0.00 | 0.33 | 0.33 | 80 | 1012.3 |
| 20260509124033 | 67 | 218 | 4.0 | 6.0 | 0.00 | 0.33 | 0.33 | 81 | 1012.2 |
| 20260509123532 | 67 | 295 | 4.0 | 5.0 | 0.00 | 0.33 | 0.33 | 81 | 1012.0 |
| 20260509123028 | 67 | 222 | 5.0 | 6.0 | 0.00 | 0.33 | 0.33 | 80 | 1011.9 |
| 20260509122524 | 67 | 279 | 5.0 | 7.0 | 0.00 | 0.33 | 0.33 | 79 | 1011.8 |
| 20260509122021 | 67 | 241 | 7.0 | 8.0 | 0.00 | 0.33 | 0.33 | 78 | 1011.9 |
| 20260509121518 | 67 | 245 | 5.0 | 5.0 | 0.00 | 0.33 | 0.33 | 77 | 1011.6 |
| 20260509121016 | 68 | 251 | 5.0 | 5.0 | 0.00 | 0.33 | 0.33 | 77 | 1011.3 |
| 20260509120514 | 67 | 213 | 2.0 | 2.0 | 0.00 | 0.33 | 0.33 | 77 | 1011.0 |
| 20260509120011 | 67 | 203 | 5.0 | 6.0 | 0.00 | 0.33 | 0.33 | 78 | 1010.9 |
| 20260509115508 | 64 | 168 | 3.0 | 3.0 | 0.00 | 0.33 | 0.33 | 85 | 1010.9 |
| 20260509115006 | 64 | 248 | 4.0 | 5.0 | 0.00 | 0.33 | 0.33 | 85 | 1010.9 |
| 20260509114504 | 64 | 300 | 3.0 | 3.0 | 0.00 | 0.33 | 0.33 | 85 | 1010.9 |
| 20260509114002 | 64 | 41 | 2.0 | 3.0 | 0.00 | 0.33 | 0.33 | 86 | 1010.6 |
| 20260509113500 | 63 | 110 | 5.0 | 6.0 | 0.00 | 0.33 | 0.33 | 88 | 1010.6 |
| 20260509112956 | 63 | 181 | 5.0 | 6.0 | 0.00 | 0.33 | 0.33 | 88 | 1010.4 |
| 20260509112454 | 64 | 188 | 4.0 | 7.0 | 0.00 | 0.33 | 0.33 | 88 | 1009.7 |
| 20260509111950 | 64 | 129 | 5.0 | 8.0 | 0.00 | 0.33 | 0.33 | 89 | 1009.3 |
| 20260509111448 | 64 | 125 | 5.0 | 7.0 | 0.00 | 0.33 | 0.33 | 89 | 1010.2 |
| 20260509110945 | 65 | 146 | 4.0 | 6.0 | 0.00 | 0.33 | 0.33 | 89 | 1010.7 |
| 20260509110442 | 65 | 126 | 5.0 | 7.0 | 0.00 | 0.33 | 0.33 | 89 | 1011.0 |
| 20260509105939 | 65 | 124 | 3.0 | 5.0 | 0.00 | 0.33 | 0.33 | 89 | 1011.4 |
| 20260509105437 | 65 | 71 | 1.0 | 2.0 | 0.00 | 0.33 | 0.33 | 89 | 1011.3 |
| 20260509104934 | 65 | 71 | 3.0 | 3.0 | 0.00 | 0.33 | 0.33 | 89 | 1011.7 |
| 20260509104431 | 65 | 204 | 2.0 | 2.0 | 0.00 | 0.33 | 0.33 | 89 | 1013.0 |
| 20260509103928 | 65 | 256 | 1.0 | 2.0 | 0.00 | 0.33 | 0.33 | 89 | 1013.4 |
| 20260509103425 | 66 | 241 | 3.0 | 3.0 | 0.00 | 0.33 | 0.33 | 89 | 1013.6 |
| 20260509102924 | 66 | 220 | 5.0 | 7.0 | 0.00 | 0.33 | 0.33 | 89 | 1014.1 |
| 20260509102421 | 65 | 212 | 6.0 | 7.0 | 0.05 | 0.33 | 0.33 | 89 | 1014.3 |
| 20260509101916 | 64 | 218 | 10.0 | 10.0 | 0.05 | 0.33 | 0.33 | 89 | 1014.0 |
| 20260509101413 | 64 | 246 | 7.0 | 8.0 | 0.19 | 0.32 | 0.32 | 89 | 1014.0 |
| 20260509100911 | 65 | 93 | 2.0 | 2.0 | 0.24 | 0.32 | 0.32 | 89 | 1013.8 |
| 20260509100407 | 64 | 312 | 1.0 | 2.0 | 0.17 | 0.29 | 0.29 | 89 | 1013.7 |
| 20260509095904 | 64 | 71 | 3.0 | 3.0 | 0.90 | 0.28 | 0.28 | 90 | 1013.5 |
| 20260509095402 | 63 | 40 | 8.0 | 11.0 | 1.32 | 0.23 | 0.23 | 90 | 1013.5 |
| 20260509094858 | 67 | 318 | 8.0 | 9.0 | 0.66 | 0.11 | 0.11 | 90 | 1013.9 |
| 20260509094355 | 66 | 229 | 2.0 | 3.0 | 0.07 | 0.01 | 0.01 | 90 | 1014.2 |
| 20260509093853 | 66 | 169 | 3.0 | 5.0 | 0.00 | 0.00 | 0.00 | 90 | 1013.7 |
| 20260509093350 | 66 | 1 | 0.0 | 1.0 | 0.00 | 0.00 | 0.00 | 90 | 1014.1 |
| 20260509092848 | 66 | 9 | 2.0 | 2.0 | 0.00 | 0.00 | 0.00 | 90 | 1014.1 |
| 20260509092346 | 66 | 228 | 1.0 | 1.0 | 0.00 | 0.00 | 0.00 | 90 | 1014.3 |
| 20260509091844 | 66 | 5 | 1.0 | 1.0 | 0.00 | 0.00 | 0.00 | 90 | 1014.2 |
| 20260509091340 | 66 | 269 | 3.0 | 3.0 | 0.00 | 0.00 | 0.00 | 90 | 1014.5 |
| 20260509090838 | 66 | 305 | 2.0 | 2.0 | 0.00 | 0.00 | 0.00 | 90 | 1014.1 |
| 20260509090336 | 66 | 272 | 5.0 | 6.0 | 0.00 | 0.00 | 0.00 | 90 | 1014.2 |
| 20260509085832 | 66 | 279 | 7.0 | 10.0 | 0.00 | 0.00 | 0.00 | 90 | 1014.2 |
| 20260509085329 | 65 | 302 | 3.0 | 3.0 | 0.00 | 0.00 | 0.00 | 90 | 1014.0 |
| 20260509084826 | 65 | 311 | 4.0 | 6.0 | 0.00 | 0.00 | 0.00 | 90 | 1014.2 |
| 20260509084323 | 65 | 358 | 6.0 | 7.0 | 0.00 | 0.00 | 0.00 | 90 | 1014.0 |
| 20260509083821 | 65 | 330 | 3.0 | 3.0 | 0.00 | 0.00 | 0.00 | 90 | 1013.8 |
| 20260509083317 | 64 | 51 | 0.0 | 0.0 | 0.00 | 0.00 | 0.00 | 90 | 1013.6 |
| 20260509082814 | 65 | 46 | 0.0 | 0.0 | 0.00 | 0.00 | 0.00 | 90 | 1013.5 |
| 20260509082310 | 66 | 207 | 1.0 | 1.0 | 0.00 | 0.00 | 0.00 | 90 | 1013.5 |
| 20260509081808 | 66 | 209 | 2.0 | 2.0 | 0.00 | 0.00 | 0.00 | 90 | 1013.4 |
| 20260509081305 | 67 | 228 | 3.0 | 3.0 | 0.00 | 0.00 | 0.00 | 90 | 1013.2 |
| 20260509080803 | 66 | 290 | 3.0 | 3.0 | 0.00 | 0.00 | 0.00 | 90 | 1013.0 |
| 20260509080300 | 65 | 7 | 1.0 | 1.0 | 0.00 | 0.00 | 0.00 | 90 | 1013.7 |
| 20260509075758 | 66 | 316 | 3.0 | 3.0 | 0.00 | 0.00 | 0.00 | 90 | 1013.7 |
| 20260509075255 | 66 | 31 | 0.0 | 0.0 | 0.00 | 0.00 | 0.00 | 90 | 1013.3 |
| 20260509074752 | 65 | 303 | 3.0 | 3.0 | 0.00 | 0.00 | 0.00 | 90 | 1013.8 |
| 20260509074250 | 65 | 24 | 0.0 | 0.0 | 0.00 | 0.00 | 0.00 | 90 | 1012.9 |
| 20260509073746 | 65 | 136 | 0.0 | 0.0 | 0.00 | 0.00 | 0.00 | 90 | 1012.9 |
| 20260509073242 | 65 | 237 | 0.0 | 0.0 | 0.00 | 0.00 | 0.00 | 90 | 1013.2 |
| 20260509072740 | 65 | 111 | 0.0 | 0.0 | 0.00 | 0.00 | 0.00 | 90 | 1013.0 |
| 20260509072236 | 65 | 87 | 0.0 | 0.0 | 0.00 | 0.00 | 0.00 | 90 | 1013.0 |
| 20260509071733 | 65 | 72 | 0.0 | 0.0 | 0.00 | 0.00 | 0.00 | 90 | 1012.9 |
| 20260509071230 | 64 | 61 | 0.0 | 0.0 | 0.00 | 0.00 | 0.00 | 90 | 1013.1 |
| 20260509070727 | 64 | 58 | 0.0 | 0.0 | 0.00 | 0.00 | 0.00 | 90 | 1013.0 |
| 20260509070223 | 63 | 67 | 0.0 | 0.0 | 0.00 | 0.00 | 0.00 | 90 | 1013.2 |
| 20260509065719 | 63 | 69 | 0.0 | 0.0 | 0.00 | 0.00 | 0.00 | 90 | 1013.5 |
| 20260509065215 | 63 | 69 | 0.0 | 0.0 | 0.00 | 0.00 | 0.00 | 90 | 1013.4 |
| 20260509064712 | 63 | 78 | 0.0 | 0.0 | 0.00 | 0.00 | 0.00 | 90 | 1013.1 |
| 20260509064210 | 63 | 74 | 0.0 | 0.0 | 0.00 | 0.00 | 0.00 | 90 | 1013.1 |
| 20260509063707 | 63 | 88 | 0.0 | 0.0 | 0.00 | 0.00 | 0.00 | 90 | 1013.1 |
| 20260509063203 | 63 | 86 | 0.0 | 0.0 | 0.00 | 0.00 | 0.00 | 89 | 1012.9 |
| 20260509062700 | 63 | 87 | 1.0 | 1.0 | 0.00 | 0.00 | 0.00 | 89 | 1012.9 |
| 20260509062158 | 63 | 143 | 1.0 | 2.0 | 0.00 | 0.00 | 0.00 | 89 | 1013.0 |
| 20260509061654 | 63 | 139 | 2.0 | 3.0 | 0.00 | 0.00 | 0.00 | 89 | 1013.0 |
| 20260509061152 | 63 | 118 | 4.0 | 5.0 | 0.00 | 0.00 | 0.00 | 89 | 1012.8 |
| 20260509060649 | 64 | 95 | 0.0 | 0.0 | 0.00 | 0.00 | 0.00 | 89 | 1012.6 |
| 20260509060145 | 62 | 95 | 0.0 | 0.0 | 0.00 | 0.00 | 0.00 | 89 | 1012.5 |
| 20260509055641 | 61 | 53 | 0.0 | 0.0 | 0.00 | 0.00 | 0.00 | 89 | 1012.6 |
| 20260509055137 | 61 | 51 | 0.0 | 0.0 | 0.00 | 0.00 | 0.00 | 89 | 1012.1 |
| 20260509054634 | 62 | 50 | 0.0 | 0.0 | 0.00 | 0.00 | 0.00 | 89 | 1012.1 |
| 20260509054132 | 64 | 116 | 1.0 | 2.0 | 0.00 | 0.00 | 0.00 | 89 | 1012.6 |
| 20260509053630 | 65 | 111 | 0.0 | 0.0 | 0.00 | 0.00 | 0.00 | 89 | 1012.7 |
| 20260509053126 | 65 | 112 | 0.0 | 0.0 | 0.00 | 0.00 | 0.00 | 89 | 1012.8 |
| 20260509052625 | 64 | 109 | 0.0 | 0.0 | 0.00 | 0.00 | 0.00 | 88 | 1012.6 |
| 20260509052122 | 64 | 94 | 0.0 | 0.0 | 0.00 | 0.00 | 0.00 | 88 | 1012.8 |
| 20260509051620 | 63 | 49 | 0.0 | 0.0 | 0.00 | 0.00 | 0.00 | 88 | 1012.5 |
| 20260509051116 | 63 | 3 | 0.0 | 0.0 | 0.00 | 0.00 | 0.00 | 88 | 1012.8 |
| 20260509050614 | 65 | 69 | 0.0 | 0.0 | 0.00 | 0.00 | 0.00 | 88 | 1012.8 |
| 20260509050110 | 65 | 60 | 0.0 | 0.0 | 0.00 | 0.00 | 0.00 | 88 | 1012.5 |
| 20260509045608 | 64 | 60 | 0.0 | 0.0 | 0.00 | 0.00 | 0.00 | 88 | 1012.7 |
| 20260509045104 | 65 | 60 | 0.0 | 0.0 | 0.00 | 0.00 | 0.00 | 88 | 1012.8 |
| 20260509044601 | 64 | 60 | 0.0 | 0.0 | 0.00 | 0.00 | 0.00 | 88 | 1012.6 |
| 20260509044059 | 64 | 60 | 0.0 | 0.0 | 0.00 | 0.00 | 0.00 | 88 | 1012.6 |
| 20260509043556 | 64 | 60 | 0.0 | 0.0 | 0.00 | 0.00 | 0.00 | 88 | 1012.6 |
| 20260509043051 | 64 | 60 | 0.0 | 0.0 | 0.00 | 0.00 | 0.00 | 88 | 1012.6 |
| 20260509042547 | 64 | 60 | 0.0 | 0.0 | 0.00 | 0.00 | 0.00 | 88 | 1012.6 |
| 20260509042043 | 66 | 60 | 0.0 | 0.0 | 0.00 | 0.00 | 0.00 | 88 | 1012.5 |
| 20260509041540 | 66 | 23 | 0.0 | 0.0 | 0.00 | 0.00 | 0.00 | 88 | 1012.8 |
| 20260509041038 | 65 | 354 | 0.0 | 0.0 | 0.00 | 0.00 | 0.00 | 88 | 1012.7 |
| 20260509040536 | 65 | 352 | 0.0 | 0.0 | 0.00 | 0.00 | 0.00 | 87 | 1012.5 |
| 20260509040033 | 65 | 355 | 0.0 | 0.0 | 0.00 | 0.00 | 0.00 | 87 | 1012.5 |
| 20260509035530 | 65 | 21 | 0.0 | 0.0 | 0.00 | 0.00 | 0.00 | 87 | 1012.6 |
| 20260509035026 | 65 | 27 | 0.0 | 0.0 | 0.00 | 0.00 | 0.00 | 87 | 1012.2 |
| 20260509034525 | 66 | 26 | 0.0 | 0.0 | 0.00 | 0.00 | 0.00 | 87 | 1012.1 |
| 20260509034021 | 66 | 271 | 2.0 | 2.0 | 0.00 | 0.00 | 0.00 | 87 | 1012.0 |
| 20260509033518 | 66 | 238 | 2.0 | 2.0 | 0.00 | 0.00 | 0.00 | 87 | 1012.1 |
| 20260509033015 | 65 | 41 | 0.0 | 0.0 | 0.00 | 0.00 | 0.00 | 87 | 1012.2 |
| 20260509032512 | 66 | 99 | 0.0 | 0.0 | 0.00 | 0.00 | 0.00 | 87 | 1012.0 |
| 20260509032009 | 66 | 162 | 1.0 | 1.0 | 0.00 | 0.00 | 0.00 | 86 | 1012.0 |
| 20260509031507 | 66 | 74 | 0.0 | 0.0 | 0.00 | 0.00 | 0.00 | 86 | 1012.1 |
| 20260509031004 | 66 | 74 | 0.0 | 0.0 | 0.00 | 0.00 | 0.00 | 86 | 1012.0 |
| 20260509030502 | 66 | 74 | 0.0 | 0.0 | 0.00 | 0.00 | 0.00 | 86 | 1011.9 |
| 20260509025954 | 67 | 74 | 0.0 | 0.0 | 0.00 | 0.00 | 0.00 | 86 | 1011.7 |
| 20260509025449 | 67 | 74 | 0.0 | 0.0 | 0.00 | 0.00 | 0.00 | 86 | 1011.7 |
| 20260509024944 | 67 | 74 | 0.0 | 0.0 | 0.00 | 0.00 | 0.00 | 86 | 1011.5 |
| 20260509024441 | 67 | 74 | 0.0 | 0.0 | 0.00 | 0.00 | 0.00 | 86 | 1011.6 |
| 20260509023937 | 68 | 76 | 1.0 | 1.0 | 0.00 | 0.00 | 0.00 | 86 | 1011.3 |
| 20260509023435 | 67 | 63 | 0.0 | 0.0 | 0.00 | 0.00 | 0.00 | 85 | 1011.7 |
| 20260509022931 | 67 | 62 | 1.0 | 1.0 | 0.00 | 0.00 | 0.00 | 85 | 1011.4 |
| 20260509022428 | 67 | 69 | 1.0 | 1.0 | 0.00 | 0.00 | 0.00 | 85 | 1011.2 |
| 20260509021926 | 67 | 74 | 0.0 | 0.0 | 0.00 | 0.00 | 0.00 | 85 | 1011.5 |
| 20260509021423 | 68 | 74 | 0.0 | 0.0 | 0.00 | 0.00 | 0.00 | 85 | 1011.6 |
| 20260509020920 | 68 | 74 | 0.0 | 0.0 | 0.00 | 0.00 | 0.00 | 84 | 1011.0 |
| 20260509020418 | 68 | 75 | 0.0 | 0.0 | 0.00 | 0.00 | 0.00 | 84 | 1010.9 |
| 20260509015915 | 68 | 75 | 0.0 | 0.0 | 0.00 | 0.00 | 0.00 | 84 | 1010.8 |
| 20260509015414 | 68 | 75 | 0.0 | 1.0 | 0.00 | 0.00 | 0.00 | 84 | 1010.8 |
| 20260509014910 | 68 | 87 | 1.0 | 1.0 | 0.00 | 0.00 | 0.00 | 84 | 1011.0 |
| 20260509014407 | 69 | 81 | 1.0 | 1.0 | 0.00 | 0.00 | 0.00 | 84 | 1010.9 |
| 20260509013904 | 69 | 103 | 2.0 | 2.0 | 0.00 | 0.00 | 0.00 | 84 | 1011.0 |
| 20260509013401 | 69 | 99 | 3.0 | 3.0 | 0.00 | 0.00 | 0.00 | 83 | 1010.8 |
| 20260509012856 | 69 | 66 | 1.0 | 2.0 | 0.00 | 0.00 | 0.00 | 83 | 1010.7 |
| 20260509012353 | 69 | 97 | 2.0 | 2.0 | 0.00 | 0.00 | 0.00 | 83 | 1010.9 |
| 20260509011850 | 69 | 85 | 4.0 | 5.0 | 0.00 | 0.00 | 0.00 | 83 | 1010.8 |
| 20260509011348 | 70 | 75 | 1.0 | 1.0 | 0.00 | 0.00 | 0.00 | 82 | 1010.9 |
| 20260509010845 | 70 | 67 | 1.0 | 1.0 | 0.00 | 0.00 | 0.00 | 82 | 1010.8 |
| 20260509010343 | 70 | 85 | 3.0 | 5.0 | 0.00 | 0.00 | 0.00 | 82 | 1010.6 |
| 20260509005840 | 70 | 81 | 6.0 | 8.0 | 0.00 | 0.00 | 0.00 | 81 | 1010.5 |
| 20260509005337 | 71 | 53 | 1.0 | 1.0 | 0.00 | 0.00 | 0.00 | 81 | 1010.9 |
| 20260509004838 | 71 | 49 | 1.0 | 1.0 | 0.00 | 0.00 | 0.00 | 81 | 1010.6 |
| 20260509004334 | 71 | 77 | 5.0 | 7.0 | 0.00 | 0.00 | 0.00 | 81 | 1010.7 |
| 20260509003832 | 71 | 79 | 5.0 | 6.0 | 0.00 | 0.00 | 0.00 | 81 | 1010.8 |
| 20260509003330 | 71 | 80 | 4.0 | 5.0 | 0.00 | 0.00 | 0.00 | 81 | 1010.9 |
| 20260509002827 | 71 | 77 | 3.0 | 5.0 | 0.00 | 0.00 | 0.00 | 81 | 1010.8 |
| 20260509002324 | 71 | 77 | 3.0 | 5.0 | 0.00 | 0.00 | 0.00 | 80 | 1011.0 |
| 20260509001822 | 71 | 105 | 3.0 | 3.0 | 0.00 | 0.00 | 0.00 | 80 | 1011.0 |
| 20260509001317 | 71 | 62 | 2.0 | 2.0 | 0.00 | 0.00 | 0.00 | 80 | 1011.0 |
| 20260509000815 | 71 | 94 | 5.0 | 6.0 | 0.00 | 0.00 | 0.00 | 80 | 1010.9 |
| 20260509000313 | 71 | 91 | 7.0 | 8.0 | 0.00 | 0.00 | 0.00 | 80 | 1010.9 |
| 20260508235809 | 71 | 80 | 6.0 | 7.0 | 0.00 | 0.00 | 0.00 | 80 | 1010.9 |
| 20260508235307 | 71 | 81 | 4.0 | 6.0 | 0.00 | 0.00 | 0.00 | 80 | 1010.8 |
| 20260508234803 | 71 | 63 | 7.0 | 7.0 | 0.00 | 0.00 | 0.00 | 79 | 1011.1 |
| 20260508234259 | 71 | 79 | 2.0 | 2.0 | 0.00 | 0.00 | 0.00 | 79 | 1011.0 |
| 20260508233758 | 72 | 111 | 7.0 | 8.0 | 0.00 | 0.00 | 0.00 | 79 | 1011.0 |
| 20260508233257 | 72 | 71 | 6.0 | 8.0 | 0.00 | 0.00 | 0.00 | 79 | 1010.8 |
| 20260508232753 | 72 | 93 | 3.0 | 3.0 | 0.00 | 0.00 | 0.00 | 79 | 1010.9 |
| 20260508232250 | 72 | 99 | 7.0 | 8.0 | 0.00 | 0.00 | 0.00 | 79 | 1010.9 |
| 20260508231748 | 72 | 107 | 5.0 | 7.0 | 0.00 | 0.00 | 0.00 | 79 | 1010.8 |
| 20260508231244 | 72 | 85 | 9.0 | 10.0 | 0.00 | 0.00 | 0.00 | 79 | 1010.9 |
| 20260508230741 | 72 | 79 | 7.0 | 10.0 | 0.00 | 0.00 | 0.00 | 79 | 1010.9 |
| 20260508230237 | 73 | 83 | 3.0 | 7.0 | 0.00 | 0.00 | 0.00 | 78 | 1010.9 |
| 20260508225735 | 73 | 116 | 7.0 | 9.0 | 0.00 | 0.00 | 0.00 | 78 | 1010.9 |
| 20260508225231 | 73 | 87 | 9.0 | 10.0 | 0.00 | 0.00 | 0.00 | 78 | 1010.8 |
| 20260508224729 | 73 | 65 | 5.0 | 7.0 | 0.00 | 0.00 | 0.00 | 78 | 1011.1 |
| 20260508224227 | 73 | 50 | 5.0 | 6.0 | 0.00 | 0.00 | 0.00 | 78 | 1010.8 |
| 20260508223724 | 73 | 73 | 6.0 | 8.0 | 0.00 | 0.00 | 0.00 | 77 | 1011.0 |
| 20260508223221 | 73 | 92 | 8.0 | 11.0 | 0.00 | 0.00 | 0.00 | 78 | 1011.0 |
| 20260508222719 | 73 | 68 | 3.0 | 6.0 | 0.00 | 0.00 | 0.00 | 77 | 1010.9 |
| 20260508222216 | 73 | 62 | 5.0 | 6.0 | 0.00 | 0.00 | 0.00 | 78 | 1010.9 |
| 20260508221712 | 73 | 119 | 7.0 | 8.0 | 0.00 | 0.00 | 0.00 | 78 | 1011.0 |
| 20260508221208 | 72 | 86 | 9.0 | 10.0 | 0.00 | 0.00 | 0.00 | 78 | 1011.0 |
| 20260508220704 | 73 | 82 | 5.0 | 8.0 | 0.00 | 0.00 | 0.00 | 77 | 1011.3 |
| 20260508220201 | 75 | 92 | 4.0 | 6.0 | 0.00 | 0.00 | 0.00 | 76 | 1011.0 |
| 20260508215658 | 74 | 83 | 3.0 | 5.0 | 0.00 | 0.00 | 0.00 | 76 | 1011.1 |
| 20260508215154 | 72 | 88 | 3.0 | 3.0 | 0.00 | 0.00 | 0.00 | 78 | 1011.1 |
| 20260508214651 | 72 | 78 | 5.0 | 6.0 | 0.00 | 0.00 | 0.00 | 78 | 1011.2 |
| 20260508214149 | 72 | 74 | 6.0 | 8.0 | 0.00 | 0.00 | 0.00 | 78 | 1011.4 |
| 20260508213645 | 72 | 83 | 6.0 | 8.0 | 0.00 | 0.00 | 0.00 | 78 | 1011.4 |
| 20260508213141 | 73 | 61 | 5.0 | 8.0 | 0.00 | 0.00 | 0.00 | 77 | 1011.3 |
| 20260508212638 | 73 | 57 | 6.0 | 7.0 | 0.00 | 0.00 | 0.00 | 77 | 1011.3 |
| 20260508212135 | 72 | 56 | 5.0 | 7.0 | 0.00 | 0.00 | 0.00 | 77 | 1011.6 |
| 20260508211635 | 72 | 82 | 3.0 | 5.0 | 0.00 | 0.00 | 0.00 | 78 | 1011.6 |
| 20260508211131 | 72 | 54 | 2.0 | 5.0 | 0.00 | 0.00 | 0.00 | 77 | 1011.7 |
| 20260508210628 | 73 | 70 | 3.0 | 3.0 | 0.00 | 0.00 | 0.00 | 76 | 1011.9 |
| 20260508210126 | 72 | 74 | 6.0 | 7.0 | 0.00 | 0.00 | 0.00 | 76 | 1012.1 |
| 20260508205623 | 73 | 38 | 2.0 | 2.0 | 0.00 | 0.00 | 0.00 | 76 | 1012.0 |
| 20260508205119 | 73 | 51 | 2.0 | 3.0 | 0.00 | 0.00 | 0.00 | 75 | 1012.2 |
| 20260508204615 | 73 | 115 | 2.0 | 2.0 | 0.00 | 0.00 | 0.00 | 76 | 1012.2 |
| 20260508204112 | 71 | 92 | 2.0 | 2.0 | 0.00 | 0.00 | 0.00 | 77 | 1012.2 |
| 20260508203608 | 71 | 75 | 3.0 | 5.0 | 0.00 | 0.00 | 0.00 | 76 | 1012.3 |
| 20260508203104 | 73 | 15 | 3.0 | 5.0 | 0.00 | 0.00 | 0.00 | 76 | 1012.1 |
| 20260508202600 | 71 | 117 | 4.0 | 7.0 | 0.00 | 0.00 | 0.00 | 77 | 1012.5 |
| 20260508202058 | 70 | 105 | 6.0 | 7.0 | 0.00 | 0.00 | 0.00 | 78 | 1012.5 |
| 20260508201554 | 70 | 72 | 7.0 | 9.0 | 0.00 | 0.00 | 0.00 | 78 | 1012.7 |
| 20260508201051 | 70 | 50 | 4.0 | 6.0 | 0.00 | 0.00 | 0.00 | 78 | 1013.0 |
| 20260508200548 | 70 | 70 | 5.0 | 6.0 | 0.00 | 0.00 | 0.00 | 78 | 1012.7 |
| 20260508200043 | 70 | 73 | 7.0 | 8.0 | 0.00 | 0.00 | 0.00 | 78 | 1012.8 |
| 20260508195541 | 70 | 69 | 6.0 | 7.0 | 0.00 | 0.00 | 0.00 | 78 | 1012.8 |
| 20260508195037 | 70 | 85 | 2.0 | 5.0 | 0.00 | 0.00 | 0.00 | 78 | 1012.9 |
| 20260508194534 | 69 | 62 | 6.0 | 7.0 | 0.00 | 0.00 | 0.00 | 78 | 1013.0 |
| 20260508194031 | 69 | 67 | 3.0 | 3.0 | 0.00 | 0.00 | 0.00 | 78 | 1012.8 |
| 20260508193527 | 70 | 37 | 4.0 | 8.0 | 0.00 | 0.00 | 0.00 | 78 | 1012.8 |
| 20260508193024 | 70 | 76 | 6.0 | 7.0 | 0.00 | 0.00 | 0.00 | 77 | 1013.0 |
| 20260508192521 | 69 | 67 | 2.0 | 2.0 | 0.00 | 0.00 | 0.00 | 78 | 1013.1 |
| 20260508192018 | 69 | 66 | 7.0 | 9.0 | 0.00 | 0.00 | 0.00 | 78 | 1013.0 |
| 20260508191515 | 69 | 45 | 3.0 | 3.0 | 0.00 | 0.00 | 0.00 | 78 | 1013.3 |
| 20260508191011 | 68 | 72 | 5.0 | 6.0 | 0.00 | 0.00 | 0.00 | 79 | 1013.3 |
| 20260508190509 | 67 | 65 | 3.0 | 7.0 | 0.00 | 0.00 | 0.00 | 80 | 1013.5 |
| 20260508190005 | 67 | 74 | 1.0 | 2.0 | 0.00 | 0.00 | 0.00 | 80 | 1013.6 |
| 20260508185503 | 67 | 77 | 3.0 | 5.0 | 0.00 | 0.00 | 0.00 | 80 | 1013.6 |
| 20260508185000 | 67 | 57 | 3.0 | 3.0 | 0.00 | 0.00 | 0.00 | 81 | 1013.8 |
| 20260508184457 | 66 | 56 | 1.0 | 1.0 | 0.00 | 0.00 | 0.00 | 81 | 1013.8 |
| 20260508183954 | 66 | 70 | 3.0 | 5.0 | 0.00 | 0.00 | 0.00 | 81 | 1013.6 |
| 20260508183450 | 66 | 67 | 7.0 | 8.0 | 0.00 | 0.00 | 0.00 | 81 | 1013.5 |
| 20260508182945 | 66 | 50 | 2.0 | 2.0 | 0.00 | 0.00 | 0.00 | 81 | 1013.8 |
| 20260508182443 | 66 | 50 | 2.0 | 2.0 | 0.00 | 0.00 | 0.00 | 80 | 1014.0 |
| 20260508181944 | 66 | 48 | 1.0 | 2.0 | 0.00 | 0.00 | 0.00 | 81 | 1013.8 |
| 20260508181440 | 66 | 71 | 5.0 | 6.0 | 0.00 | 0.00 | 0.00 | 81 | 1014.2 |
| 20260508180938 | 66 | 54 | 2.0 | 2.0 | 0.00 | 0.00 | 0.00 | 81 | 1014.2 |
| 20260508180435 | 66 | 13 | 3.0 | 3.0 | 0.00 | 0.00 | 0.00 | 81 | 1014.3 |
| 20260508175931 | 65 | 53 | 3.0 | 3.0 | 0.00 | 0.00 | 0.00 | 81 | 1014.3 |
| 20260508175427 | 65 | 86 | 1.0 | 2.0 | 0.00 | 0.00 | 0.00 | 81 | 1014.4 |
| 20260508174926 | 65 | 35 | 3.0 | 5.0 | 0.00 | 0.00 | 0.00 | 81 | 1014.5 |
| 20260508174423 | 65 | 80 | 3.0 | 5.0 | 0.00 | 0.00 | 0.00 | 81 | 1014.8 |
| 20260508173919 | 65 | 88 | 6.0 | 7.0 | 0.00 | 0.00 | 0.00 | 81 | 1014.5 |